FIN3ML EFHK-EGLL

Flight info

Callsign FIN3ML
Flight time N/A
Altitude 41000
Route ADIVO Y365 POGOK DCT TIPIX DCT UPGAS DCT TIPAN DCT WECOW DCT BINBO DCT AKOKO N866 BUKUT P7 BARMI
Aircraft A359/H-SDE2E3GHIJ3J4J5LM1ORWXY/LB1D1

Departure

Time 2026-05-07 16:33
Airport Helsinki Vantaa Airport (EFHK)

Arrival

Time N/A
Airport London Heathrow Airport (EGLL)
Time Latitude Longitude Altitude Speed Heading
2026-05-07 16:03 60.31288 24.95641 173 ft 0 kts 317°
2026-05-07 16:20 60.31276 24.95663 173 ft 4 kts 318°
2026-05-07 16:20 60.31256 24.95699 173 ft 4 kts 315°
2026-05-07 16:20 60.31240 24.95739 173 ft 4 kts 285°
2026-05-07 16:21 60.31238 24.95763 173 ft 3 kts 230°
2026-05-07 16:21 60.31255 24.95800 173 ft 4 kts 227°
2026-05-07 16:21 60.31270 24.95831 173 ft 0 kts 227°
2026-05-07 16:25 60.31254 24.95797 158 ft 6 kts 227°
2026-05-07 16:26 60.31218 24.95717 173 ft 9 kts 227°
2026-05-07 16:26 60.31175 24.95619 173 ft 9 kts 232°
2026-05-07 16:26 60.31178 24.95498 172 ft 10 kts 304°
2026-05-07 16:26 60.31235 24.95388 172 ft 13 kts 318°
2026-05-07 16:27 60.31308 24.95254 173 ft 15 kts 317°
2026-05-07 16:27 60.31387 24.95107 173 ft 11 kts 314°
2026-05-07 16:27 60.31434 24.95002 174 ft 9 kts 317°
2026-05-07 16:27 60.31486 24.95002 175 ft 9 kts 25°
2026-05-07 16:28 60.31538 24.95097 176 ft 11 kts 47°
2026-05-07 16:28 60.31598 24.95233 176 ft 15 kts 48°
2026-05-07 16:28 60.31671 24.95394 176 ft 17 kts 47°
2026-05-07 16:28 60.31756 24.95581 177 ft 20 kts 47°
2026-05-07 16:29 60.31856 24.95799 175 ft 20 kts 47°
2026-05-07 16:29 60.31904 24.95905 176 ft 7 kts 47°
2026-05-07 16:29 60.31948 24.95951 177 ft 6 kts 360°
2026-05-07 16:29 60.31987 24.95912 178 ft 8 kts 322°
2026-05-07 16:30 60.32046 24.95812 180 ft 14 kts 319°
2026-05-07 16:30 60.32135 24.95647 179 ft 21 kts 317°
2026-05-07 16:30 60.32254 24.95426 181 ft 25 kts 317°
2026-05-07 16:30 60.32401 24.95234 196 ft 27 kts 340°
2026-05-07 16:31 60.32583 24.95116 203 ft 28 kts 342°
2026-05-07 16:31 60.32751 24.95007 194 ft 15 kts 342°
2026-05-07 16:31 60.32869 24.94928 181 ft 20 kts 338°
2026-05-07 16:31 60.32979 24.94757 201 ft 20 kts 319°
2026-05-07 16:32 60.33074 24.94580 205 ft 15 kts 317°
2026-05-07 16:32 60.33119 24.94495 208 ft 6 kts 317°
2026-05-07 16:32 60.33124 24.94423 205 ft 6 kts 253°
2026-05-07 16:32 60.33094 24.94344 203 ft 9 kts 227°
2026-05-07 16:33 60.32950 24.94028 200 ft 67 kts 227°
2026-05-07 16:33 60.32463 24.92958 180 ft 137 kts 227°
2026-05-07 16:33 60.31729 24.91318 599 ft 163 kts 227°
2026-05-07 16:33 60.31034 24.89526 1480 ft 164 kts 239°
2026-05-07 16:34 60.30814 24.87318 2396 ft 163 kts 274°
2026-05-07 16:34 60.31014 24.85172 3394 ft 151 kts 281°
2026-05-07 16:34 60.31257 24.83028 3937 ft 166 kts 282°
2026-05-07 16:34 60.31510 24.80568 4255 ft 192 kts 281°
2026-05-07 16:35 60.31746 24.77766 4683 ft 213 kts 277°
2026-05-07 16:35 60.31778 24.74615 5153 ft 236 kts 270°
2026-05-07 16:35 60.31707 24.71184 5800 ft 252 kts 270°
2026-05-07 16:35 60.31615 24.67591 6671 ft 259 kts 270°
2026-05-07 16:36 60.31522 24.63933 7667 ft 262 kts 269°
2026-05-07 16:36 60.31430 24.60271 8793 ft 261 kts 269°
2026-05-07 16:36 60.31342 24.56592 9858 ft 265 kts 268°
2026-05-07 16:36 60.31248 24.52823 10648 ft 277 kts 267°
2026-05-07 16:37 60.31142 24.48777 11104 ft 299 kts 267°
2026-05-07 16:37 60.31032 24.44565 11853 ft 309 kts 266°
2026-05-07 16:37 60.30917 24.40159 12928 ft 310 kts 266°
2026-05-07 16:37 60.30804 24.35886 14000 ft 309 kts 266°
2026-05-07 16:38 60.30688 24.31543 14942 ft 311 kts 266°
2026-05-07 16:38 60.30570 24.27171 15865 ft 314 kts 266°
2026-05-07 16:38 60.30449 24.22751 16779 ft 317 kts 266°
2026-05-07 16:38 60.30326 24.18282 17677 ft 321 kts 266°
2026-05-07 16:39 60.30200 24.13768 18591 ft 322 kts 266°
2026-05-07 16:39 60.30073 24.09258 19475 ft 323 kts 266°
2026-05-07 16:39 60.29943 24.04719 20281 ft 326 kts 266°
2026-05-07 16:39 60.29800 24.00143 21081 ft 328 kts 265°
2026-05-07 16:40 60.29495 23.95564 21861 ft 331 kts 261°
2026-05-07 16:40 60.29064 23.90978 22644 ft 334 kts 259°
2026-05-07 16:40 60.28570 23.86380 23425 ft 337 kts 258°
2026-05-07 16:40 60.28048 23.81761 24081 ft 340 kts 258°
2026-05-07 16:41 60.27515 23.77095 24686 ft 344 kts 258°
2026-05-07 16:41 60.26980 23.72376 25302 ft 347 kts 258°
2026-05-07 16:41 60.26447 23.67616 25919 ft 350 kts 258°
2026-05-07 16:41 60.25911 23.62805 26543 ft 353 kts 258°
2026-05-07 16:42 60.25374 23.57955 27143 ft 357 kts 258°
2026-05-07 16:42 60.24830 23.53045 27745 ft 360 kts 258°
2026-05-07 16:42 60.24282 23.48105 28338 ft 363 kts 258°
2026-05-07 16:42 60.23726 23.43121 28910 ft 367 kts 258°
2026-05-07 16:43 60.23170 23.38144 29459 ft 370 kts 258°
2026-05-07 16:43 60.22599 23.33071 30065 ft 373 kts 258°
2026-05-07 16:43 60.22025 23.27986 30605 ft 374 kts 258°
2026-05-07 16:43 60.21443 23.22844 30974 ft 379 kts 258°
2026-05-07 16:44 60.20851 23.17634 31326 ft 384 kts 258°
2026-05-07 16:44 60.20251 23.12369 31696 ft 389 kts 258°
2026-05-07 16:44 60.19640 23.07030 31896 ft 396 kts 258°
2026-05-07 16:44 60.19016 23.01604 32246 ft 400 kts 258°
2026-05-07 16:45 60.18384 22.96134 32668 ft 403 kts 257°
2026-05-07 16:45 60.17746 22.90630 33045 ft 406 kts 257°
2026-05-07 16:45 60.17099 22.85081 33400 ft 410 kts 257°
2026-05-07 16:45 60.16445 22.79486 33737 ft 413 kts 257°
2026-05-07 16:46 60.15781 22.73829 34064 ft 417 kts 257°
2026-05-07 16:46 60.15120 22.68219 34340 ft 420 kts 257°
2026-05-07 16:46 60.14440 22.62469 34611 ft 423 kts 257°
2026-05-07 16:46 60.13760 22.56719 34939 ft 424 kts 257°
2026-05-07 16:47 60.13075 22.50950 35319 ft 424 kts 257°
2026-05-07 16:47 60.12384 22.45192 35650 ft 426 kts 257°
2026-05-07 16:47 60.11686 22.39416 35974 ft 427 kts 257°
2026-05-07 16:47 60.10987 22.33638 36282 ft 427 kts 258°
2026-05-07 16:48 60.10318 22.27811 36554 ft 428 kts 259°
2026-05-07 16:48 60.09668 22.21989 36807 ft 430 kts 259°
2026-05-07 16:48 60.09003 22.16134 37074 ft 430 kts 258°
2026-05-07 16:48 60.08318 22.10280 37342 ft 431 kts 258°
2026-05-07 16:49 60.07616 22.04445 37574 ft 431 kts 257°
2026-05-07 16:49 60.06897 21.98596 37770 ft 433 kts 257°
2026-05-07 16:49 60.06176 21.92801 38012 ft 434 kts 257°
2026-05-07 16:49 60.05440 21.86933 38287 ft 434 kts 257°
2026-05-07 16:50 60.04675 21.81095 38553 ft 434 kts 254°
2026-05-07 16:50 60.03881 21.75263 38820 ft 434 kts 254°
2026-05-07 16:50 60.03092 21.69431 39034 ft 435 kts 255°
2026-05-07 16:50 60.02310 21.63556 39160 ft 438 kts 255°
2026-05-07 16:51 60.01538 21.57641 39342 ft 438 kts 255°
2026-05-07 16:51 60.00777 21.51749 39542 ft 439 kts 255°
2026-05-07 16:51 60.00017 21.45833 39730 ft 439 kts 255°
2026-05-07 16:51 59.99209 21.39944 39914 ft 439 kts 252°
2026-05-07 16:52 59.98179 21.34195 40093 ft 440 kts 250°
2026-05-07 16:52 59.97104 21.28571 40273 ft 440 kts 249°
2026-05-07 16:52 59.95981 21.22878 40440 ft 440 kts 249°
2026-05-07 16:52 59.94844 21.17211 40611 ft 441 kts 248°
2026-05-07 16:53 59.93697 21.11532 40789 ft 441 kts 248°
2026-05-07 16:53 59.92549 21.05866 40935 ft 441 kts 248°
2026-05-07 16:53 59.91398 21.00190 41083 ft 442 kts 248°
2026-05-07 16:54 59.89076 20.88751 41132 ft 449 kts 248°
2026-05-07 16:54 59.86710 20.77144 41136 ft 456 kts 248°
2026-05-07 16:55 59.84315 20.65449 41123 ft 455 kts 248°
2026-05-07 16:55 59.81913 20.53794 41125 ft 455 kts 248°
2026-05-07 16:56 59.79500 20.42152 41127 ft 455 kts 248°
2026-05-07 16:56 59.75863 20.24734 41128 ft 455 kts 248°
2026-05-07 16:57 59.73422 20.13124 41133 ft 456 kts 248°
2026-05-07 16:57 59.70988 20.01613 41134 ft 456 kts 248°
2026-05-07 16:58 59.68521 19.90012 41138 ft 457 kts 248°
2026-05-07 16:58 59.66047 19.78440 41134 ft 457 kts 248°
2026-05-07 16:59 59.63559 19.66870 41139 ft 457 kts 248°
2026-05-07 16:59 59.61063 19.55325 41137 ft 457 kts 248°
2026-05-07 17:00 59.58555 19.43792 41124 ft 456 kts 248°
2026-05-07 17:00 59.56041 19.32292 41141 ft 456 kts 248°
2026-05-07 17:01 59.53518 19.20815 41138 ft 456 kts 247°
2026-05-07 17:01 59.51003 19.09434 41138 ft 456 kts 247°
2026-05-07 17:02 59.48457 18.97979 41131 ft 456 kts 247°
2026-05-07 17:02 59.45904 18.86553 41132 ft 456 kts 247°
2026-05-07 17:03 59.43339 18.75134 41132 ft 456 kts 247°
2026-05-07 17:03 59.40765 18.63737 41103 ft 456 kts 247°
2026-05-07 17:04 59.38187 18.52388 41123 ft 455 kts 246°
2026-05-07 17:04 59.35618 18.41132 41124 ft 455 kts 246°
2026-05-07 17:05 59.33023 18.29830 41125 ft 455 kts 246°
2026-05-07 17:05 59.30417 18.18535 41127 ft 455 kts 246°
2026-05-07 17:06 59.27800 18.07251 41130 ft 455 kts 246°
2026-05-07 17:06 59.25614 17.97871 41128 ft 455 kts 246°
2026-05-07 17:07 59.22979 17.86619 41105 ft 455 kts 246°
2026-05-07 17:07 59.20329 17.75358 41108 ft 456 kts 246°
2026-05-07 17:08 59.17665 17.64103 41108 ft 457 kts 246°
2026-05-07 17:08 59.14990 17.52860 41115 ft 457 kts 246°
2026-05-07 17:09 59.12306 17.41636 41111 ft 457 kts 246°
2026-05-07 17:09 59.09630 17.30502 41106 ft 457 kts 246°
2026-05-07 17:10 59.06928 17.19316 41105 ft 456 kts 246°
2026-05-07 17:10 59.04215 17.08144 41096 ft 456 kts 246°
2026-05-07 17:11 59.01494 16.96994 41120 ft 457 kts 245°
2026-05-07 17:11 58.98776 16.85911 41110 ft 458 kts 245°
2026-05-07 17:12 58.96029 16.74773 41111 ft 458 kts 245°
2026-05-07 17:12 58.93277 16.63668 41102 ft 457 kts 245°
2026-05-07 17:13 58.90519 16.52595 41105 ft 456 kts 245°
2026-05-07 17:13 58.87770 16.41503 41098 ft 456 kts 246°
2026-05-07 17:14 58.85051 16.30431 41078 ft 456 kts 245°
2026-05-07 17:14 58.82316 16.19354 41101 ft 457 kts 245°
2026-05-07 17:15 58.79559 16.08282 41098 ft 458 kts 245°
2026-05-07 17:15 58.76789 15.97224 41098 ft 458 kts 245°
2026-05-07 17:16 58.74030 15.86264 41096 ft 457 kts 245°
2026-05-07 17:16 58.71245 15.75254 41088 ft 457 kts 245°
2026-05-07 17:17 58.68454 15.64276 41086 ft 457 kts 245°
2026-05-07 17:17 58.65651 15.53303 41062 ft 457 kts 245°
2026-05-07 17:18 58.62833 15.42328 41086 ft 458 kts 245°
2026-05-07 17:18 58.60018 15.31417 41086 ft 459 kts 245°
2026-05-07 17:19 58.57175 15.20453 41084 ft 459 kts 244°
2026-05-07 17:19 58.54327 15.09521 41091 ft 459 kts 244°
2026-05-07 17:20 58.51465 14.98586 41099 ft 459 kts 244°
2026-05-07 17:20 58.48649 14.87885 41101 ft 459 kts 244°
2026-05-07 17:21 58.46038 14.78005 41088 ft 459 kts 244°
2026-05-07 17:21 58.43147 14.67117 41101 ft 460 kts 244°
2026-05-07 17:22 58.40240 14.56221 41103 ft 460 kts 244°
2026-05-07 17:22 58.37327 14.45357 41103 ft 460 kts 244°
2026-05-07 17:23 58.34417 14.34551 41106 ft 460 kts 244°
2026-05-07 17:23 58.31486 14.23725 41108 ft 460 kts 244°
2026-05-07 17:24 58.28544 14.12905 41109 ft 460 kts 243°
2026-05-07 17:24 58.25593 14.02107 41094 ft 460 kts 243°
2026-05-07 17:25 58.22628 13.91308 41106 ft 462 kts 243°
2026-05-07 17:25 58.19649 13.80509 41105 ft 462 kts 243°
2026-05-07 17:26 58.16660 13.69726 41106 ft 462 kts 243°
2026-05-07 17:26 58.13663 13.58965 41106 ft 462 kts 243°
2026-05-07 17:27 58.10659 13.48226 41104 ft 461 kts 243°
2026-05-07 17:27 58.07647 13.37510 41102 ft 461 kts 243°
2026-05-07 17:28 58.04644 13.26881 41100 ft 461 kts 243°
2026-05-07 17:28 58.01616 13.16206 41099 ft 461 kts 243°
2026-05-07 17:29 57.98577 13.05548 41098 ft 461 kts 243°
2026-05-07 17:29 57.95528 12.94899 41100 ft 461 kts 242°
2026-05-07 17:30 57.92471 12.84271 41103 ft 461 kts 242°
2026-05-07 17:30 57.89408 12.73674 41107 ft 461 kts 242°
2026-05-07 17:31 57.86334 12.63088 41105 ft 461 kts 242°
2026-05-07 17:31 57.83252 12.52521 41099 ft 462 kts 242°
2026-05-07 17:32 57.80155 12.41953 41105 ft 462 kts 242°
2026-05-07 17:32 57.77065 12.31455 41104 ft 463 kts 242°
2026-05-07 17:33 57.73945 12.20904 41102 ft 463 kts 242°
2026-05-07 17:33 57.70819 12.10379 41129 ft 462 kts 242°
2026-05-07 17:34 57.67685 11.99874 41129 ft 462 kts 242°
2026-05-07 17:34 57.64542 11.89388 41119 ft 462 kts 242°
2026-05-07 17:35 57.61390 11.78918 41119 ft 463 kts 241°
2026-05-07 17:35 57.58223 11.68442 41119 ft 464 kts 241°
2026-05-07 17:36 57.55068 11.58058 41124 ft 464 kts 241°
2026-05-07 17:36 57.51879 11.47606 41124 ft 464 kts 241°
2026-05-07 17:37 57.48681 11.37169 41126 ft 464 kts 241°
2026-05-07 17:37 57.45474 11.26753 41128 ft 464 kts 241°
2026-05-07 17:38 57.42263 11.16369 41117 ft 464 kts 241°
2026-05-07 17:38 57.39037 11.05981 41138 ft 466 kts 241°
2026-05-07 17:39 57.35789 10.95569 41140 ft 466 kts 240°
2026-05-07 17:39 57.34185 10.90443 40886 ft 465 kts 240°
2026-05-07 17:39 57.32566 10.85282 40393 ft 463 kts 240°
2026-05-07 17:40 57.30950 10.80144 40162 ft 457 kts 240°
2026-05-07 17:40 57.29358 10.75092 40125 ft 454 kts 240°
2026-05-07 17:40 57.26176 10.65023 40128 ft 453 kts 240°
2026-05-07 17:41 57.22992 10.54987 40130 ft 453 kts 240°
2026-05-07 17:41 57.19797 10.44961 40115 ft 453 kts 240°
2026-05-07 17:42 57.16588 10.34935 40116 ft 454 kts 240°
2026-05-07 17:42 57.13369 10.24922 40116 ft 455 kts 240°
2026-05-07 17:43 57.10159 10.14977 40129 ft 454 kts 240°
2026-05-07 17:43 57.06919 10.04981 40139 ft 454 kts 240°
2026-05-07 17:44 57.03669 9.94995 40140 ft 454 kts 240°
2026-05-07 17:44 57.00441 9.85121 40140 ft 454 kts 240°
2026-05-07 17:45 56.97177 9.75176 40127 ft 455 kts 239°
2026-05-07 17:45 56.93895 9.65216 40110 ft 456 kts 239°
2026-05-07 17:46 56.90605 9.55276 40103 ft 456 kts 239°
2026-05-07 17:46 56.87326 9.45410 40109 ft 456 kts 239°
2026-05-07 17:47 56.84021 9.35507 40112 ft 456 kts 239°
2026-05-07 17:47 56.80711 9.25628 40108 ft 456 kts 239°
2026-05-07 17:48 56.77395 9.15773 40105 ft 455 kts 239°
2026-05-07 17:48 56.74066 9.05920 40112 ft 457 kts 239°
2026-05-07 17:49 56.70729 8.96084 40114 ft 457 kts 239°
2026-05-07 17:49 56.67369 8.86221 40114 ft 457 kts 239°
2026-05-07 17:50 56.64010 8.76400 40115 ft 457 kts 239°
2026-05-07 17:50 56.60646 8.66606 40120 ft 457 kts 238°
2026-05-07 17:51 56.57842 8.58471 40122 ft 457 kts 238°
2026-05-07 17:51 56.54467 8.48718 40119 ft 457 kts 238°
2026-05-07 17:52 56.51078 8.38961 40121 ft 458 kts 238°
2026-05-07 17:52 56.47675 8.29206 40120 ft 459 kts 238°
2026-05-07 17:53 56.44258 8.19449 40125 ft 459 kts 238°
2026-05-07 17:53 56.40875 8.09830 40123 ft 459 kts 238°
2026-05-07 17:54 56.38100 8.01965 40110 ft 458 kts 238°
2026-05-07 17:54 56.34691 7.92341 40111 ft 458 kts 238°
2026-05-07 17:55 56.31256 7.82681 40123 ft 458 kts 238°
2026-05-07 17:55 56.27795 7.72987 40125 ft 460 kts 238°
2026-05-07 17:56 56.24325 7.63306 40124 ft 460 kts 237°
2026-05-07 17:56 56.20848 7.53644 40121 ft 460 kts 237°
2026-05-07 17:57 56.17957 7.45639 40125 ft 460 kts 237°
2026-05-07 17:57 56.13884 7.34408 40127 ft 459 kts 237°
2026-05-07 17:58 56.10415 7.24883 40126 ft 458 kts 237°
2026-05-07 17:58 56.06913 7.15304 40125 ft 460 kts 237°
2026-05-07 17:59 56.03399 7.05729 40125 ft 461 kts 237°
2026-05-07 17:59 55.99871 6.96155 40121 ft 461 kts 237°
2026-05-07 18:00 55.96333 6.86592 40125 ft 461 kts 237°
2026-05-07 18:00 55.92791 6.77054 40132 ft 461 kts 237°
2026-05-07 18:01 55.89269 6.67609 40127 ft 460 kts 237°
2026-05-07 18:01 55.85727 6.58145 40124 ft 460 kts 237°
2026-05-07 18:02 55.82536 6.49625 40225 ft 458 kts 237°
2026-05-07 18:02 55.80761 6.44886 40172 ft 461 kts 236°
2026-05-07 18:03 55.77186 6.35442 40128 ft 460 kts 236°
2026-05-07 18:03 55.73605 6.26024 40127 ft 460 kts 236°
2026-05-07 18:04 55.70025 6.16632 40135 ft 460 kts 236°
2026-05-07 18:04 55.66442 6.07254 40136 ft 459 kts 236°
2026-05-07 18:05 55.62860 5.97917 40126 ft 459 kts 236°
2026-05-07 18:05 55.59260 5.88568 40125 ft 461 kts 236°
2026-05-07 18:06 55.55645 5.79215 40126 ft 461 kts 236°
2026-05-07 18:06 55.52020 5.69874 40126 ft 461 kts 236°
2026-05-07 18:07 55.48391 5.60557 40129 ft 461 kts 236°
2026-05-07 18:07 55.44754 5.51255 40119 ft 461 kts 236°
2026-05-07 18:07 55.42934 5.46612 40300 ft 460 kts 236°
2026-05-07 18:08 55.41114 5.41981 40573 ft 458 kts 236°
2026-05-07 18:08 55.39302 5.37375 40800 ft 458 kts 235°
2026-05-07 18:08 55.37487 5.32772 40969 ft 459 kts 235°
2026-05-07 18:08 55.35664 5.28156 41099 ft 460 kts 235°
2026-05-07 18:09 55.33830 5.23522 41138 ft 465 kts 235°
2026-05-07 18:09 55.30103 5.14134 41120 ft 473 kts 235°
2026-05-07 18:10 55.26221 5.04766 41135 ft 475 kts 230°
2026-05-07 18:10 55.21281 4.97150 41131 ft 475 kts 213°
2026-05-07 18:11 55.15549 4.91368 41113 ft 476 kts 209°
2026-05-07 18:11 55.09731 4.85979 41129 ft 476 kts 208°
2026-05-07 18:12 55.03863 4.80574 41128 ft 477 kts 208°
2026-05-07 18:12 54.98009 4.75136 41111 ft 477 kts 209°
2026-05-07 18:13 54.92160 4.69690 41123 ft 477 kts 209°
2026-05-07 18:13 54.86305 4.64249 41121 ft 477 kts 208°
2026-05-07 18:14 54.80449 4.58828 41124 ft 477 kts 208°
2026-05-07 18:14 54.74593 4.53427 41120 ft 477 kts 208°
2026-05-07 18:15 54.68736 4.48044 41123 ft 477 kts 208°
2026-05-07 18:15 54.62908 4.42704 41118 ft 477 kts 208°
2026-05-07 18:16 54.57037 4.37337 41121 ft 476 kts 208°
2026-05-07 18:16 54.51179 4.32004 41122 ft 477 kts 208°
2026-05-07 18:17 54.45300 4.26675 41123 ft 476 kts 208°
2026-05-07 18:17 54.39430 4.21370 41118 ft 476 kts 208°
2026-05-07 18:18 54.33565 4.16084 41123 ft 476 kts 208°
2026-05-07 18:18 54.27734 4.10846 41120 ft 476 kts 208°
2026-05-07 18:19 54.21861 4.05586 41115 ft 476 kts 208°
2026-05-07 18:19 54.15993 4.00348 41114 ft 476 kts 208°
2026-05-07 18:20 54.10788 3.95717 41118 ft 476 kts 208°
2026-05-07 18:20 54.04865 3.90662 41112 ft 475 kts 202°
2026-05-07 18:21 53.98911 3.85697 41118 ft 476 kts 208°
2026-05-07 18:21 53.93128 3.80344 41104 ft 476 kts 209°
2026-05-07 18:22 53.87289 3.75009 41117 ft 476 kts 208°
2026-05-07 18:22 53.81418 3.69809 41116 ft 476 kts 208°
2026-05-07 18:23 53.75531 3.64672 41125 ft 476 kts 208°
2026-05-07 18:23 53.69638 3.59555 41118 ft 476 kts 208°
2026-05-07 18:24 53.63784 3.54480 41114 ft 476 kts 208°
2026-05-07 18:24 53.57881 3.49375 41115 ft 476 kts 208°
2026-05-07 18:25 53.51991 3.44297 41116 ft 476 kts 208°
2026-05-07 18:25 53.46095 3.39230 41116 ft 476 kts 207°
2026-05-07 18:26 53.40231 3.34206 41113 ft 476 kts 207°
2026-05-07 18:26 53.34338 3.29164 41113 ft 476 kts 207°
2026-05-07 18:27 53.28436 3.24144 41110 ft 476 kts 207°
2026-05-07 18:27 53.22529 3.19132 41110 ft 476 kts 207°
2026-05-07 18:28 53.16628 3.14134 41108 ft 476 kts 207°
2026-05-07 18:28 53.10713 3.09145 41108 ft 476 kts 207°
2026-05-07 18:29 53.04805 3.04177 41108 ft 476 kts 207°
2026-05-07 18:29 52.98931 2.99259 41007 ft 475 kts 207°
2026-05-07 18:29 52.95983 2.96795 40694 ft 472 kts 207°
2026-05-07 18:30 52.93065 2.94358 39929 ft 467 kts 207°
2026-05-07 18:30 52.90171 2.91942 39017 ft 462 kts 207°
2026-05-07 18:30 52.87328 2.89575 38283 ft 451 kts 207°
2026-05-07 18:30 52.84543 2.87262 37629 ft 447 kts 207°
2026-05-07 18:31 52.81767 2.84959 36966 ft 447 kts 207°
2026-05-07 18:31 52.78981 2.82650 36319 ft 447 kts 206°
2026-05-07 18:31 52.76195 2.80343 35640 ft 449 kts 206°
2026-05-07 18:31 52.73395 2.78024 34957 ft 450 kts 206°
2026-05-07 18:32 52.70597 2.75717 34439 ft 448 kts 206°
2026-05-07 18:32 52.67817 2.73429 33894 ft 445 kts 206°
2026-05-07 18:32 52.65057 2.71159 33327 ft 442 kts 206°
2026-05-07 18:32 52.62351 2.68936 32822 ft 438 kts 206°
2026-05-07 18:33 52.59637 2.66710 32286 ft 434 kts 206°
2026-05-07 18:33 52.56945 2.64504 31797 ft 430 kts 206°
2026-05-07 18:33 52.54278 2.62322 31287 ft 426 kts 206°
2026-05-07 18:33 52.51637 2.60163 30776 ft 423 kts 206°
2026-05-07 18:34 52.49004 2.58015 30289 ft 419 kts 207°
2026-05-07 18:34 52.46406 2.55897 29900 ft 415 kts 207°
2026-05-07 18:34 52.43802 2.53776 29781 ft 419 kts 207°
2026-05-07 18:34 52.41192 2.51655 29663 ft 419 kts 207°
2026-05-07 18:35 52.38577 2.49532 29532 ft 419 kts 207°
2026-05-07 18:35 52.35968 2.47418 29363 ft 418 kts 207°
2026-05-07 18:35 52.33402 2.45340 29228 ft 417 kts 207°
2026-05-07 18:35 52.30805 2.43240 29069 ft 416 kts 207°
2026-05-07 18:36 52.28217 2.41150 28922 ft 415 kts 207°
2026-05-07 18:36 52.25630 2.39064 28758 ft 414 kts 207°
2026-05-07 18:36 52.23057 2.36993 28617 ft 412 kts 207°
2026-05-07 18:36 52.20480 2.34919 28461 ft 411 kts 207°
2026-05-07 18:37 52.17917 2.32859 28328 ft 410 kts 207°
2026-05-07 18:37 52.15359 2.30807 28165 ft 409 kts 207°
2026-05-07 18:37 52.12816 2.28744 28027 ft 407 kts 209°
2026-05-07 18:37 52.11208 2.27177 27938 ft 406 kts 216°
2026-05-07 18:38 52.09075 2.24205 27773 ft 404 kts 227°
2026-05-07 18:38 52.07192 2.20819 27645 ft 403 kts 229°
2026-05-07 18:38 52.05359 2.17387 27486 ft 402 kts 230°
2026-05-07 18:38 52.02925 2.12839 27295 ft 401 kts 229°
2026-05-07 18:39 52.01687 2.10537 27197 ft 400 kts 230°
2026-05-07 18:39 51.99858 2.07147 27031 ft 399 kts 229°
2026-05-07 18:39 51.98034 2.03772 26910 ft 398 kts 229°
2026-05-07 18:39 51.96210 2.00406 26757 ft 397 kts 229°
2026-05-07 18:40 51.94409 1.97090 26617 ft 396 kts 229°
2026-05-07 18:40 51.92589 1.93743 26481 ft 395 kts 229°
2026-05-07 18:40 51.90771 1.90404 26331 ft 394 kts 229°
2026-05-07 18:40 51.88960 1.87083 26190 ft 393 kts 229°
2026-05-07 18:41 51.87147 1.83762 26047 ft 393 kts 229°
2026-05-07 18:41 51.85339 1.80455 25908 ft 392 kts 229°
2026-05-07 18:41 51.83536 1.77161 25766 ft 391 kts 229°
2026-05-07 18:41 51.81733 1.73874 25622 ft 390 kts 229°
2026-05-07 18:42 51.79931 1.70591 25477 ft 390 kts 229°
2026-05-07 18:42 51.78134 1.67322 25332 ft 388 kts 229°
2026-05-07 18:42 51.76386 1.64015 25192 ft 386 kts 234°
2026-05-07 18:42 51.75055 1.60267 25052 ft 384 kts 248°
2026-05-07 18:43 51.74377 1.56095 24453 ft 385 kts 262°
2026-05-07 18:43 51.74083 1.51799 23827 ft 386 kts 264°
2026-05-07 18:43 51.73836 1.47492 23176 ft 384 kts 264°
2026-05-07 18:43 51.73582 1.43214 22581 ft 381 kts 264°
2026-05-07 18:44 51.73320 1.38987 22011 ft 377 kts 263°
2026-05-07 18:44 51.73053 1.34791 21448 ft 374 kts 263°
2026-05-07 18:44 51.72788 1.30695 20886 ft 370 kts 263°
2026-05-07 18:44 51.72518 1.26569 20346 ft 367 kts 263°
2026-05-07 18:45 51.72249 1.22494 19775 ft 365 kts 263°
2026-05-07 18:45 51.71979 1.18439 19241 ft 362 kts 263°
2026-05-07 18:45 51.71708 1.14406 18694 ft 360 kts 263°
2026-05-07 18:45 51.71439 1.10407 18115 ft 358 kts 263°
2026-05-07 18:46 51.71170 1.06432 17554 ft 355 kts 263°
2026-05-07 18:46 51.70903 1.02509 17028 ft 351 kts 263°
2026-05-07 18:46 51.70636 0.98613 16502 ft 348 kts 262°
2026-05-07 18:46 51.70370 0.94739 15986 ft 346 kts 262°
2026-05-07 18:47 51.70109 0.90889 15574 ft 344 kts 262°
2026-05-07 18:47 51.69843 0.87073 15231 ft 339 kts 262°
2026-05-07 18:47 51.69592 0.83470 14976 ft 315 kts 262°
2026-05-07 18:47 51.69355 0.80077 14533 ft 299 kts 261°
2026-05-07 18:48 51.69116 0.76724 14266 ft 301 kts 261°
2026-05-07 18:48 51.68882 0.73422 13823 ft 294 kts 261°
2026-05-07 18:48 51.68645 0.70112 13488 ft 295 kts 261°
2026-05-07 18:48 51.68415 0.66856 13099 ft 294 kts 262°
2026-05-07 18:49 51.68183 0.63584 12701 ft 290 kts 261°
2026-05-07 18:49 51.67949 0.60355 12415 ft 292 kts 261°
2026-05-07 18:49 51.67717 0.57156 11990 ft 283 kts 261°
2026-05-07 18:49 51.67484 0.53969 11666 ft 285 kts 261°
2026-05-07 18:50 51.67255 0.50817 11303 ft 286 kts 262°
2026-05-07 18:50 51.67024 0.47644 10917 ft 282 kts 262°
2026-05-07 18:50 51.66799 0.44525 10416 ft 281 kts 261°
2026-05-07 18:50 51.66566 0.41395 10024 ft 281 kts 259°
2026-05-07 18:51 51.66308 0.38290 9643 ft 279 kts 259°
2026-05-07 18:51 51.66051 0.35195 9300 ft 278 kts 259°
2026-05-07 18:51 51.65805 0.32120 8946 ft 277 kts 259°
2026-05-07 18:51 51.65566 0.29048 8598 ft 276 kts 259°
2026-05-07 18:52 51.65326 0.25962 8299 ft 277 kts 260°
2026-05-07 18:52 51.65090 0.22905 8091 ft 273 kts 260°
2026-05-07 18:52 51.64857 0.19870 8070 ft 273 kts 261°
2026-05-07 18:52 51.64625 0.16833 8072 ft 273 kts 260°
2026-05-07 18:53 51.64410 0.13815 8070 ft 272 kts 262°
2026-05-07 18:53 51.64285 0.10767 8073 ft 273 kts 265°
2026-05-07 18:53 51.64210 0.07747 8072 ft 273 kts 265°
2026-05-07 18:53 51.64143 0.04686 8072 ft 274 kts 265°
2026-05-07 18:54 51.64069 0.01710 8074 ft 274 kts 264°
2026-05-07 18:54 51.63995 -0.01361 8072 ft 274 kts 265°
2026-05-07 18:54 51.63916 -0.04424 8068 ft 274 kts 265°
2026-05-07 18:54 51.63831 -0.07494 8034 ft 275 kts 265°
2026-05-07 18:55 51.63748 -0.10565 7941 ft 274 kts 265°
2026-05-07 18:55 51.63666 -0.13605 7841 ft 274 kts 265°
2026-05-07 18:55 51.63580 -0.16624 7750 ft 274 kts 265°
2026-05-07 18:55 51.63492 -0.19680 7692 ft 274 kts 265°
2026-05-07 18:56 51.63401 -0.22744 7634 ft 274 kts 265°
2026-05-07 18:56 51.63305 -0.25812 7568 ft 274 kts 265°
2026-05-07 18:56 51.63220 -0.28616 7507 ft 273 kts 265°
2026-05-07 18:56 51.63125 -0.31747 7449 ft 273 kts 265°
2026-05-07 18:57 51.63031 -0.34762 7397 ft 273 kts 265°
2026-05-07 18:57 51.62896 -0.37810 7311 ft 272 kts 259°
2026-05-07 18:57 51.62440 -0.40746 7270 ft 271 kts 251°
2026-05-07 18:57 51.61865 -0.43643 7216 ft 272 kts 250°
2026-05-07 18:58 51.61282 -0.46507 7156 ft 262 kts 250°
2026-05-07 18:58 51.60732 -0.49207 7106 ft 247 kts 250°
2026-05-07 18:58 51.60207 -0.51789 7016 ft 240 kts 250°
2026-05-07 18:58 51.59688 -0.54331 6858 ft 237 kts 250°
2026-05-07 18:59 51.59173 -0.56851 6477 ft 238 kts 250°
2026-05-07 18:59 51.58649 -0.59385 6066 ft 239 kts 250°
2026-05-07 18:59 51.58130 -0.61898 5705 ft 238 kts 250°
2026-05-07 18:59 51.57612 -0.64418 5424 ft 237 kts 250°
2026-05-07 19:00 51.57097 -0.66927 5266 ft 237 kts 250°
2026-05-07 19:00 51.56579 -0.69456 5130 ft 238 kts 250°
2026-05-07 19:00 51.56062 -0.71985 5004 ft 238 kts 250°
2026-05-07 19:00 51.55545 -0.74514 4820 ft 238 kts 250°
2026-05-07 19:01 51.54793 -0.76837 4621 ft 229 kts 224°
2026-05-07 19:01 51.53507 -0.78091 4360 ft 210 kts 191°
2026-05-07 19:01 51.52121 -0.78409 4106 ft 194 kts 181°
2026-05-07 19:01 51.50797 -0.78472 4004 ft 189 kts 172°
2026-05-07 19:02 51.49649 -0.77589 3988 ft 184 kts 133°
2026-05-07 19:02 51.48865 -0.76016 3664 ft 180 kts 121°
2026-05-07 19:02 51.48171 -0.74305 3283 ft 184 kts 120°
2026-05-07 19:02 51.47597 -0.72512 3035 ft 182 kts 112°
2026-05-07 19:03 51.47143 -0.70609 2992 ft 183 kts 100°
2026-05-07 19:03 51.47131 -0.68585 2994 ft 182 kts 80°